Flag for Paraguay Weather past 2 weeks in Ciudad del Este, Paraguay

Now
82 °F

Sunny.


Feels Like: 81 °F
Forecast: 49 / 82 °F
Wind: 7 mph from Northwest

Location: Foz Do Iguacu Aeroporto

Current Time: Aug 29, 2014 at 2:36:48 PM

Latest Report: Aug 29, 2014 at 2:00 PM


Visibility: 10 mi

Pressure: 29.98 "Hg

Humidity: 32%

Dew point: 50 °F

Location of Ciudad del EsteLocation

Historic Weather in Ciudad del Este — Graph

°F

Ciudad del Este temperature yesterday

Maximum temperature yesterday: 75 °F (at 2:00 PM)
Minimum temperature yesterday: 41 °F (at 4:00 AM)
Average temperature yesterday: 56 °F

Past Weeks' High & Low Weather Summary

 TemperatureHumidityPressure
High93 °F (Aug 24, 2:00 PM)100% (Aug 18, 1:00 AM)30.24 "Hg (Aug 18, 1:00 AM)
Low37 °F (Aug 27, 6:00 AM)28% (Aug 24, 2:00 PM)29.68 "Hg (Aug 24, 2:00 PM)
Average67 °F68%30.05 "Hg
* Reported Aug 14 1:00 PM — Aug 29 1:00 PM, Ciudad del Este, Weather by CustomWeather, © 2014

Note: Actual official high and low records may vary slightly from our data, if they occured in-between our weather recording intervals... More about our weather records

Advertising

Ciudad del Este weather history for previous 24 hours

 ConditionsComfort  
Time TempWeatherWind HumidityBarometerVisibility
1:00 PM
Aug 29
82 °FSunny.7 mph32%30.01 "Hg10 mi
12:00 PM81 °FSunny.7 mph37%30.04 "Hg10 mi
11:00 AM75 °FSunny.3 mph44%30.07 "Hg10 mi
10:00 AM70 °FSunny.5 mph53%30.09 "Hg10 mi
9:00 AM66 °FPassing clouds.7 mph56%30.09 "HgN/A
8:00 AM59 °FSunny.7 mph72%30.09 "Hg10 mi
7:00 AM54 °FSunny.8 mph88%30.07 "Hg10 mi
6:00 AM48 °FSunny.3 mph94%30.04 "Hg10 mi
5:00 AM50 °FSunny.5 mph88%30.04 "Hg10 mi
4:00 AM48 °FClear.2 mph94%30.01 "Hg10 mi
3:00 AM50 °FClear.3 mph94%30.01 "Hg10 mi
2:00 AM46 °FClear.No wind100%30.01 "Hg10 mi
1:00 AM48 °FClear.2 mph94%30.04 "Hg10 mi
12:00 AM48 °FClear.3 mph100%30.04 "Hg10 mi
11:00 PM
Aug 28
50 °FClear.3 mph94%30.04 "Hg10 mi
10:00 PM50 °FClear.No wind94%30.04 "Hg10 mi
9:00 PM52 °FClear.2 mph94%30.04 "Hg10 mi
8:00 PM55 °FClear.3 mph82%30.04 "Hg10 mi
7:00 PM55 °FClear.3 mph77%30.01 "Hg10 mi
6:00 PM59 °FClear.3 mph68%30.01 "Hg10 mi
5:00 PM68 °FClear.2 mph43%30.01 "Hg10 mi
4:00 PM73 °FSunny.3 mph36%29.98 "Hg10 mi
3:00 PM75 °FSunny.3 mph36%30.01 "Hg10 mi
2:00 PM75 °FSunny.3 mph31%30.01 "Hg10 mi
Weather by CustomWeather, © 2014

See weather overviewHow to use our weather pages